Regional Weather Roundup
Issued by NWS

Home | Current Version | Previous Version | Graphics & Text | Print | Product List | Glossary On
Versions: 1 2 3 4 5 6 7 8 9 10 11 12 13 14 15 16 17 18 19 20 21 22 23 24 25 26 27 28 29 30 31 32 33 34 35 36 37 38 39 40 41 42 43 44 45 46 47 48 49 50
000
ASUS45 KSLC 181510
RWRUT

UTAH REGIONAL WEATHER ROUNDUP
NATIONAL WEATHER SERVICE SALT LAKE CITY UT
900 AM MDT THU SEP 18 2014

UTZ001>011-023>025-181600-

NORTHERN UTAH

CITY           SKY/WX    TMP DP  RH WIND       PRES   REMARKS
HILL AFB       SUNNY     71  46  39 SE14      29.95S
LOGAN          SUNNY     62  50  64 CALM      29.92S
OGDEN          SUNNY     70  45  40 S10       29.92S
PROVO AIRPORT  SUNNY     66  46  48 SE7       29.99S
SALT LAKE CITY MOSUNNY   73  46  38 SE9       29.92S
VERNAL         SUNNY     61  47  59 CALM      30.07S
WENDOVER       SUNNY     73  46  38 NE6       29.89F
HEBER CITY     SUNNY     54  45  71 CALM      30.08R
WEST JORDAN    SUNNY     73  43  33 SE9       29.96S

$$

UTZ012>022-026-027-181600-

SOUTHERN UTAH

CITY           SKY/WX    TMP DP  RH WIND       PRES   REMARKS
BRYCE CANYON   SUNNY     54  47  77 W3        30.21S
CEDAR CITY     SUNNY     67  51  56 SE7       30.05S
MILFORD        SUNNY     64  51  62 S6        30.01R
MOAB/CYNLANDS  SUNNY     72  47  40 SE7       30.01R
PRICE          SUNNY     70  40  33 E3        30.10R
ST GEORGE      SUNNY     73  54  49 SE6       29.92S
KANAB            N/A     66  48  52 NW3       30.07S

$$

REGIONAL REPORTS     COLORADO/ARIZONA

CITY           SKY/WX    TMP DP  RH WIND       PRES   REMARKS
CRAIG, CO      SUNNY     54  41  61 CALM      30.14F
GRAND JUNCTION SUNNY     65  42  43 SE7       30.05S
RIFLE          SUNNY     56  43  61 CALM      30.13S
MONTROSE       SUNNY     62  44  51 S3        30.14S
CORTEZ         SUNNY     57  47  69 E3        30.14S
PAGE, AZ       SUNNY     73  50  44 VRB5      30.00R
GRAND CANYON   SUNNY     61  51  70 SW6       30.14S
KINGMAN        MOSUNNY   77  62  59 SE7       29.93S
FLAGSTAFF      SUNNY     58  52  80 CALM      30.16R

$$

REGIONAL REPORTS    NEVADA/IDAHO/WYOMING

CITY           SKY/WX    TMP DP  RH WIND       PRES   REMARKS
LAS VEGAS, NV  PTSUNNY   82  60  47 SW5       29.77S
ELY            SUNNY     63  49  60 S9        30.05S
ELKO           PTSUNNY   71  47  42 CALM      29.92S
POCATELLO, ID  TSTM      64  57  78 E7        29.89F
BURLEY         MOSUNNY   65  52  62 W6        29.85R
EVANSTON, WY   SUNNY     64  39  39 S7        30.13F
ROCK SPRINGS   SUNNY     57  35  43 E3        30.13R

$$



USA.gov is the U.S. government's official web portal to all federal, state and local government web resources and services.